Tracking 19279 objects as of 14-Nov-2018
HD Live streaming from Space Station
objects crossing your sky now

OV1-9

Track OV1-9 now!
10-day predictions
OV1-9 is classified as:


NORAD ID: 2610
Int'l Code: 1966-111A
Perigee: 482.3 km
Apogee: 4,545.7 km
Inclination: 99.1 °
Period: 138.9 minutes
Semi major axis: 8885 km
RCS: 0.6636 m2 (medium)
Launch date: December 11, 1966
Source: United States (US)
Launch site: AIR FORCE WESTERN TEST RANGE (AFWTR)
aabbcc
Your satellite tracking list
Your tracking list is empty




NASA's NSSDC Master Catalog

Two Line Element Set (TLE):
1  2610U 66111A   18317.23111475 +.00000025 +00000-0 +24814-4 0  9998
2  2610 099.1108 248.8435 2286639 282.4283 053.1920 10.36608872945445
Source of the keplerian elements: AFSPC